owner,sensor,date,latitude,longitude,vertical_datum,sea_water_practical_salinity,qcFlag 
COMPS,ioos:station:USF.COMPS:ANC:1,2013-02-01T00:00:00Z,28.1930,-82.7890,1.0,24.738,1111122 
COMPS,ioos:station:USF.COMPS:ANC:1,2013-02-01T00:06:00Z,28.1930,-82.7890,1.0,24.765,1111122 
COMPS,ioos:station:USF.COMPS:ANC:1,2013-02-01T00:12:00Z,28.1930,-82.7890,1.0,24.783,1111122 
COMPS,ioos:station:USF.COMPS:ANC:1,2013-02-01T00:18:00Z,28.1930,-82.7890,1.0,24.8,1111122 
COMPS,ioos:station:USF.COMPS:ANC:1,2013-02-01T00:24:00Z,28.1930,-82.7890,1.0,24.599,1111122 
COMPS,ioos:station:USF.COMPS:ANC:1,2013-02-01T00:30:00Z,28.1930,-82.7890,1.0,24.901,1111122 
COMPS,ioos:station:USF.COMPS:ANC:1,2013-02-01T00:36:00Z,28.1930,-82.7890,1.0,24.891,1111122 
COMPS,ioos:station:USF.COMPS:ANC:1,2013-02-01T00:42:00Z,28.1930,-82.7890,1.0,24.979,1111122 
COMPS,ioos:station:USF.COMPS:ANC:1,2013-02-01T00:48:00Z,28.1930,-82.7890,1.0,25.028,1111122 
COMPS,ioos:station:USF.COMPS:ANC:1,2013-02-01T00:54:00Z,28.1930,-82.7890,1.0,25.086,1111122 
COMPS,ioos:station:USF.COMPS:ANC:1,2013-02-01T01:00:00Z,28.1930,-82.7890,1.0,25.166,1111122 
COMPS,ioos:station:USF.COMPS:ANC:1,2013-02-01T01:06:00Z,28.1930,-82.7890,1.0,25.205,1111122 
COMPS,ioos:station:USF.COMPS:ANC:1,2013-02-01T01:12:00Z,28.1930,-82.7890,1.0,25.238,1111122 
COMPS,ioos:station:USF.COMPS:ANC:1,2013-02-01T01:18:00Z,28.1930,-82.7890,1.0,25.268,1111122 
COMPS,ioos:station:USF.COMPS:ANC:1,2013-02-01T01:24:00Z,28.1930,-82.7890,1.0,25.335,1111122 
COMPS,ioos:station:USF.COMPS:ANC:1,2013-02-01T01:30:00Z,28.1930,-82.7890,1.0,25.41,1111122 
COMPS,ioos:station:USF.COMPS:ANC:1,2013-02-01T01:36:00Z,28.1930,-82.7890,1.0,25.43,1111122 
COMPS,ioos:station:USF.COMPS:ANC:1,2013-02-01T01:42:00Z,28.1930,-82.7890,1.0,25.413,1111122 
COMPS,ioos:station:USF.COMPS:ANC:1,2013-02-01T01:48:00Z,28.1930,-82.7890,1.0,25.484,1111122 
COMPS,ioos:station:USF.COMPS:ANC:1,2013-02-01T01:54:00Z,28.1930,-82.7890,1.0,25.536,1111122 
COMPS,ioos:station:USF.COMPS:ANC:1,2013-02-01T02:00:00Z,28.1930,-82.7890,1.0,25.596,1111122 
COMPS,ioos:station:USF.COMPS:ANC:1,2013-02-01T02:06:00Z,28.1930,-82.7890,1.0,25.779,1111122 
COMPS,ioos:station:USF.COMPS:ANC:1,2013-02-01T02:12:00Z,28.1930,-82.7890,1.0,26.234,1111122 
COMPS,ioos:station:USF.COMPS:ANC:1,2013-02-01T02:18:00Z,28.1930,-82.7890,1.0,26.512,1111122 
COMPS,ioos:station:USF.COMPS:ANC:1,2013-02-01T02:24:00Z,28.1930,-82.7890,1.0,26.04,1111122 
COMPS,ioos:station:USF.COMPS:ANC:1,2013-02-01T02:30:00Z,28.1930,-82.7890,1.0,26.212,1111122 
COMPS,ioos:station:USF.COMPS:ANC:1,2013-02-01T02:36:00Z,28.1930,-82.7890,1.0,26.133,1111122 
COMPS,ioos:station:USF.COMPS:ANC:1,2013-02-01T02:42:00Z,28.1930,-82.7890,1.0,26.069,1111122 
COMPS,ioos:station:USF.COMPS:ANC:1,2013-02-01T02:48:00Z,28.1930,-82.7890,1.0,26.045,1111122 
COMPS,ioos:station:USF.COMPS:ANC:1,2013-02-01T02:54:00Z,28.1930,-82.7890,1.0,26.044,1111122 
COMPS,ioos:station:USF.COMPS:ANC:1,2013-02-01T03:00:00Z,28.1930,-82.7890,1.0,26.053,1111122 
COMPS,ioos:station:USF.COMPS:ANC:1,2013-02-01T03:06:00Z,28.1930,-82.7890,1.0,26.041,1111122 
COMPS,ioos:station:USF.COMPS:ANC:1,2013-02-01T03:12:00Z,28.1930,-82.7890,1.0,26.01,1111122 
COMPS,ioos:station:USF.COMPS:ANC:1,2013-02-01T03:18:00Z,28.1930,-82.7890,1.0,26.007,1111122 
COMPS,ioos:station:USF.COMPS:ANC:1,2013-02-01T03:24:00Z,28.1930,-82.7890,1.0,25.997,1111122 
COMPS,ioos:station:USF.COMPS:ANC:1,2013-02-01T03:30:00Z,28.1930,-82.7890,1.0,25.963,1111122 
COMPS,ioos:station:USF.COMPS:ANC:1,2013-02-01T03:36:00Z,28.1930,-82.7890,1.0,25.933,1111122 
COMPS,ioos:station:USF.COMPS:ANC:1,2013-02-01T03:42:00Z,28.1930,-82.7890,1.0,25.893,1111122 
COMPS,ioos:station:USF.COMPS:ANC:1,2013-02-01T03:48:00Z,28.1930,-82.7890,1.0,25.851,1111122 
COMPS,ioos:station:USF.COMPS:ANC:1,2013-02-01T03:54:00Z,28.1930,-82.7890,1.0,25.826,1111122 
COMPS,ioos:station:USF.COMPS:ANC:1,2013-02-01T04:54:00Z,28.1930,-82.7890,0.0,24.836,1111122 
COMPS,ioos:station:USF.COMPS:ANC:1,2013-02-01T05:00:00Z,28.1930,-82.7890,1.0,24.874,1111122 
COMPS,ioos:station:USF.COMPS:ANC:1,2013-02-01T05:06:00Z,28.1930,-82.7890,1.0,24.883,1111122 
COMPS,ioos:station:USF.COMPS:ANC:1,2013-02-01T05:12:00Z,28.1930,-82.7890,1.0,24.861,1111122 
COMPS,ioos:station:USF.COMPS:ANC:1,2013-02-01T05:18:00Z,28.1930,-82.7890,1.0,24.771,1111122 
COMPS,ioos:station:USF.COMPS:ANC:1,2013-02-01T05:24:00Z,28.1930,-82.7890,1.0,24.789,1111122 
COMPS,ioos:station:USF.COMPS:ANC:1,2013-02-01T05:30:00Z,28.1930,-82.7890,1.0,24.853,1111122 
COMPS,ioos:station:USF.COMPS:ANC:1,2013-02-01T05:36:00Z,28.1930,-82.7890,1.0,24.876,1111122 
COMPS,ioos:station:USF.COMPS:ANC:1,2013-02-01T05:42:00Z,28.1930,-82.7890,1.0,24.907,1111122 
COMPS,ioos:station:USF.COMPS:ANC:1,2013-02-01T05:48:00Z,28.1930,-82.7890,1.0,24.94,1111122 
COMPS,ioos:station:USF.COMPS:ANC:1,2013-02-01T05:54:00Z,28.1930,-82.7890,1.0,24.905,1111122 
COMPS,ioos:station:USF.COMPS:ANC:1,2013-02-01T06:00:00Z,28.1930,-82.7890,1.0,24.881,1111122 
COMPS,ioos:station:USF.COMPS:ANC:1,2013-02-01T06:06:00Z,28.1930,-82.7890,1.0,24.858,1111122 
COMPS,ioos:station:USF.COMPS:ANC:1,2013-02-01T06:12:00Z,28.1930,-82.7890,1.0,24.803,1111122 
COMPS,ioos:station:USF.COMPS:ANC:1,2013-02-01T06:18:00Z,28.1930,-82.7890,1.0,24.79,1111122 
COMPS,ioos:station:USF.COMPS:ANC:1,2013-02-01T06:24:00Z,28.1930,-82.7890,1.0,24.821,1111122 
COMPS,ioos:station:USF.COMPS:ANC:1,2013-02-01T06:30:00Z,28.1930,-82.7890,1.0,24.847,1111122 
COMPS,ioos:station:USF.COMPS:ANC:1,2013-02-01T06:36:00Z,28.1930,-82.7890,1.0,24.861,1111122 
COMPS,ioos:station:USF.COMPS:ANC:1,2013-02-01T06:42:00Z,28.1930,-82.7890,1.0,24.841,1111122 
COMPS,ioos:station:USF.COMPS:ANC:1,2013-02-01T06:48:00Z,28.1930,-82.7890,1.0,24.818,1111122 
COMPS,ioos:station:USF.COMPS:ANC:1,2013-02-01T06:54:00Z,28.1930,-82.7890,1.0,24.844,1111122 
COMPS,ioos:station:USF.COMPS:ANC:1,2013-02-01T07:54:00Z,28.1930,-82.7890,0.0,24.95,1111122 
COMPS,ioos:station:USF.COMPS:ANC:1,2013-02-01T08:00:00Z,28.1930,-82.7890,1.0,24.973,1111122 
COMPS,ioos:station:USF.COMPS:ANC:1,2013-02-01T08:06:00Z,28.1930,-82.7890,1.0,25.013,1111122 
COMPS,ioos:station:USF.COMPS:ANC:1,2013-02-01T08:12:00Z,28.1930,-82.7890,1.0,25.051,1111122 
COMPS,ioos:station:USF.COMPS:ANC:1,2013-02-01T08:18:00Z,28.1930,-82.7890,1.0,25.169,1111122 
COMPS,ioos:station:USF.COMPS:ANC:1,2013-02-01T08:24:00Z,28.1930,-82.7890,1.0,25.307,1111122 
COMPS,ioos:station:USF.COMPS:ANC:1,2013-02-01T08:30:00Z,28.1930,-82.7890,1.0,25.379,1111122 
COMPS,ioos:station:USF.COMPS:ANC:1,2013-02-01T08:36:00Z,28.1930,-82.7890,1.0,25.442,1111122 
COMPS,ioos:station:USF.COMPS:ANC:1,2013-02-01T08:42:00Z,28.1930,-82.7890,1.0,25.518,1111122 
COMPS,ioos:station:USF.COMPS:ANC:1,2013-02-01T08:48:00Z,28.1930,-82.7890,1.0,25.597,1111122 
COMPS,ioos:station:USF.COMPS:ANC:1,2013-02-01T08:54:00Z,28.1930,-82.7890,1.0,25.644,1111122 
COMPS,ioos:station:USF.COMPS:ANC:1,2013-02-01T09:00:00Z,28.1930,-82.7890,1.0,25.763,1111122 
COMPS,ioos:station:USF.COMPS:ANC:1,2013-02-01T09:06:00Z,28.1930,-82.7890,1.0,25.817,1111122 
COMPS,ioos:station:USF.COMPS:ANC:1,2013-02-01T09:12:00Z,28.1930,-82.7890,1.0,25.829,1111122 
COMPS,ioos:station:USF.COMPS:ANC:1,2013-02-01T09:18:00Z,28.1930,-82.7890,1.0,25.555,1111122 
COMPS,ioos:station:USF.COMPS:ANC:1,2013-02-01T09:24:00Z,28.1930,-82.7890,1.0,25.885,1111122 
COMPS,ioos:station:USF.COMPS:ANC:1,2013-02-01T09:30:00Z,28.1930,-82.7890,1.0,26.02,1111122 
COMPS,ioos:station:USF.COMPS:ANC:1,2013-02-01T09:36:00Z,28.1930,-82.7890,1.0,26.064,1111122 
COMPS,ioos:station:USF.COMPS:ANC:1,2013-02-01T09:42:00Z,28.1930,-82.7890,1.0,26.085,1111122 
COMPS,ioos:station:USF.COMPS:ANC:1,2013-02-01T09:48:00Z,28.1930,-82.7890,1.0,26.102,1111122 
COMPS,ioos:station:USF.COMPS:ANC:1,2013-02-01T09:54:00Z,28.1930,-82.7890,1.0,26.123,1111122 
COMPS,ioos:station:USF.COMPS:ANC:1,2013-02-01T10:00:00Z,28.1930,-82.7890,1.0,26.121,1111122 
COMPS,ioos:station:USF.COMPS:ANC:1,2013-02-01T10:06:00Z,28.1930,-82.7890,1.0,26.14,1111122 
COMPS,ioos:station:USF.COMPS:ANC:1,2013-02-01T10:12:00Z,28.1930,-82.7890,1.0,26.164,1111122 
COMPS,ioos:station:USF.COMPS:ANC:1,2013-02-01T10:18:00Z,28.1930,-82.7890,1.0,26.147,1111122 
COMPS,ioos:station:USF.COMPS:ANC:1,2013-02-01T10:24:00Z,28.1930,-82.7890,1.0,26.128,1111122 
COMPS,ioos:station:USF.COMPS:ANC:1,2013-02-01T10:30:00Z,28.1930,-82.7890,1.0,26.118,1111122 
COMPS,ioos:station:USF.COMPS:ANC:1,2013-02-01T10:36:00Z,28.1930,-82.7890,1.0,26.088,1111122 
COMPS,ioos:station:USF.COMPS:ANC:1,2013-02-01T10:42:00Z,28.1930,-82.7890,1.0,26.057,1111122 
COMPS,ioos:station:USF.COMPS:ANC:1,2013-02-01T10:48:00Z,28.1930,-82.7890,1.0,26.04,1111122 
COMPS,ioos:station:USF.COMPS:ANC:1,2013-02-01T10:54:00Z,28.1930,-82.7890,1.0,26.047,1111122 
COMPS,ioos:station:USF.COMPS:ANC:1,2013-02-01T11:00:00Z,28.1930,-82.7890,1.0,26.045,1111122 
COMPS,ioos:station:USF.COMPS:ANC:1,2013-02-01T11:06:00Z,28.1930,-82.7890,1.0,26.026,1111122 
COMPS,ioos:station:USF.COMPS:ANC:1,2013-02-01T11:12:00Z,28.1930,-82.7890,1.0,26.001,1111122 
COMPS,ioos:station:USF.COMPS:ANC:1,2013-02-01T11:18:00Z,28.1930,-82.7890,1.0,26.005,1111122 
COMPS,ioos:station:USF.COMPS:ANC:1,2013-02-01T11:24:00Z,28.1930,-82.7890,1.0,25.995,1111122 
COMPS,ioos:station:USF.COMPS:ANC:1,2013-02-01T11:30:00Z,28.1930,-82.7890,1.0,26.0,1111122 
COMPS,ioos:station:USF.COMPS:ANC:1,2013-02-01T11:36:00Z,28.1930,-82.7890,1.0,25.998,1111122 
COMPS,ioos:station:USF.COMPS:ANC:1,2013-02-01T11:42:00Z,28.1930,-82.7890,1.0,25.994,1111122 
COMPS,ioos:station:USF.COMPS:ANC:1,2013-02-01T11:48:00Z,28.1930,-82.7890,1.0,25.994,1111122 
COMPS,ioos:station:USF.COMPS:ANC:1,2013-02-01T11:54:00Z,28.1930,-82.7890,1.0,25.979,1111122 
COMPS,ioos:station:USF.COMPS:ANC:1,2013-02-01T12:00:00Z,28.1930,-82.7890,1.0,25.975,1111122 
COMPS,ioos:station:USF.COMPS:ANC:1,2013-02-01T12:06:00Z,28.1930,-82.7890,1.0,25.967,1111122 
COMPS,ioos:station:USF.COMPS:ANC:1,2013-02-01T12:12:00Z,28.1930,-82.7890,1.0,25.946,1111122 
COMPS,ioos:station:USF.COMPS:ANC:1,2013-02-01T12:18:00Z,28.1930,-82.7890,1.0,25.939,1111122 
COMPS,ioos:station:USF.COMPS:ANC:1,2013-02-01T12:24:00Z,28.1930,-82.7890,1.0,25.924,1111122 
COMPS,ioos:station:USF.COMPS:ANC:1,2013-02-01T12:30:00Z,28.1930,-82.7890,1.0,25.914,1111122 
COMPS,ioos:station:USF.COMPS:ANC:1,2013-02-01T12:36:00Z,28.1930,-82.7890,1.0,25.901,1111122 
COMPS,ioos:station:USF.COMPS:ANC:1,2013-02-01T12:42:00Z,28.1930,-82.7890,1.0,25.9,1111122 
COMPS,ioos:station:USF.COMPS:ANC:1,2013-02-01T12:48:00Z,28.1930,-82.7890,1.0,25.893,1111122 
COMPS,ioos:station:USF.COMPS:ANC:1,2013-02-01T12:54:00Z,28.1930,-82.7890,1.0,25.901,1111122 
COMPS,ioos:station:USF.COMPS:ANC:1,2013-02-01T13:00:00Z,28.1930,-82.7890,1.0,25.907,1111122 
COMPS,ioos:station:USF.COMPS:ANC:1,2013-02-01T13:06:00Z,28.1930,-82.7890,1.0,25.902,1111122 
COMPS,ioos:station:USF.COMPS:ANC:1,2013-02-01T13:12:00Z,28.1930,-82.7890,1.0,25.915,1111122 
COMPS,ioos:station:USF.COMPS:ANC:1,2013-02-01T13:18:00Z,28.1930,-82.7890,1.0,25.912,1111122 
COMPS,ioos:station:USF.COMPS:ANC:1,2013-02-01T13:24:00Z,28.1930,-82.7890,1.0,25.901,1111122 
COMPS,ioos:station:USF.COMPS:ANC:1,2013-02-01T13:30:00Z,28.1930,-82.7890,1.0,25.913,1111122 
COMPS,ioos:station:USF.COMPS:ANC:1,2013-02-01T13:36:00Z,28.1930,-82.7890,1.0,25.903,1111122 
COMPS,ioos:station:USF.COMPS:ANC:1,2013-02-01T13:42:00Z,28.1930,-82.7890,1.0,25.774,1111122 
COMPS,ioos:station:USF.COMPS:ANC:1,2013-02-01T13:48:00Z,28.1930,-82.7890,1.0,25.887,1111122 
COMPS,ioos:station:USF.COMPS:ANC:1,2013-02-01T13:54:00Z,28.1930,-82.7890,1.0,25.891,1111122 
COMPS,ioos:station:USF.COMPS:ANC:1,2013-02-01T14:00:00Z,28.1930,-82.7890,1.0,25.893,1111122 
COMPS,ioos:station:USF.COMPS:ANC:1,2013-02-01T14:06:00Z,28.1930,-82.7890,1.0,25.918,1111122 
COMPS,ioos:station:USF.COMPS:ANC:1,2013-02-01T14:12:00Z,28.1930,-82.7890,1.0,25.92,1111122 
COMPS,ioos:station:USF.COMPS:ANC:1,2013-02-01T14:18:00Z,28.1930,-82.7890,1.0,25.938,1111122 
COMPS,ioos:station:USF.COMPS:ANC:1,2013-02-01T14:24:00Z,28.1930,-82.7890,1.0,25.942,1111122 
COMPS,ioos:station:USF.COMPS:ANC:1,2013-02-01T14:30:00Z,28.1930,-82.7890,1.0,25.938,1111122 
COMPS,ioos:station:USF.COMPS:ANC:1,2013-02-01T14:36:00Z,28.1930,-82.7890,1.0,25.946,1111122 
COMPS,ioos:station:USF.COMPS:ANC:1,2013-02-01T14:42:00Z,28.1930,-82.7890,1.0,25.962,1111122 
COMPS,ioos:station:USF.COMPS:ANC:1,2013-02-01T14:48:00Z,28.1930,-82.7890,1.0,25.95,1111122 
COMPS,ioos:station:USF.COMPS:ANC:1,2013-02-01T14:54:00Z,28.1930,-82.7890,1.0,25.958,1111122 
COMPS,ioos:station:USF.COMPS:ANC:1,2013-02-01T15:00:00Z,28.1930,-82.7890,1.0,25.966,1111122 
COMPS,ioos:station:USF.COMPS:ANC:1,2013-02-01T15:06:00Z,28.1930,-82.7890,1.0,25.981,1111122 
COMPS,ioos:station:USF.COMPS:ANC:1,2013-02-01T15:12:00Z,28.1930,-82.7890,1.0,25.971,1111122 
COMPS,ioos:station:USF.COMPS:ANC:1,2013-02-01T15:18:00Z,28.1930,-82.7890,1.0,25.962,1111122 
COMPS,ioos:station:USF.COMPS:ANC:1,2013-02-01T15:24:00Z,28.1930,-82.7890,1.0,25.961,1111122 
COMPS,ioos:station:USF.COMPS:ANC:1,2013-02-01T15:30:00Z,28.1930,-82.7890,1.0,25.952,1111122 
COMPS,ioos:station:USF.COMPS:ANC:1,2013-02-01T15:36:00Z,28.1930,-82.7890,1.0,25.936,1111122 
COMPS,ioos:station:USF.COMPS:ANC:1,2013-02-01T15:42:00Z,28.1930,-82.7890,1.0,25.921,1111122 
COMPS,ioos:station:USF.COMPS:ANC:1,2013-02-01T15:48:00Z,28.1930,-82.7890,1.0,25.896,1111122 
COMPS,ioos:station:USF.COMPS:ANC:1,2013-02-01T15:54:00Z,28.1930,-82.7890,1.0,25.88,1111122 
COMPS,ioos:station:USF.COMPS:ANC:1,2013-02-01T16:00:00Z,28.1930,-82.7890,1.0,25.855,1111122 
COMPS,ioos:station:USF.COMPS:ANC:1,2013-02-01T16:06:00Z,28.1930,-82.7890,1.0,25.847,1111122 
COMPS,ioos:station:USF.COMPS:ANC:1,2013-02-01T16:12:00Z,28.1930,-82.7890,1.0,25.789,1111122 
COMPS,ioos:station:USF.COMPS:ANC:1,2013-02-01T16:18:00Z,28.1930,-82.7890,1.0,25.805,1111122 
COMPS,ioos:station:USF.COMPS:ANC:1,2013-02-01T16:24:00Z,28.1930,-82.7890,1.0,25.789,1111122 
COMPS,ioos:station:USF.COMPS:ANC:1,2013-02-01T16:30:00Z,28.1930,-82.7890,1.0,25.748,1111122 
COMPS,ioos:station:USF.COMPS:ANC:1,2013-02-01T16:36:00Z,28.1930,-82.7890,1.0,25.723,1111122 
COMPS,ioos:station:USF.COMPS:ANC:1,2013-02-01T16:42:00Z,28.1930,-82.7890,1.0,25.657,1111122 
COMPS,ioos:station:USF.COMPS:ANC:1,2013-02-01T16:48:00Z,28.1930,-82.7890,1.0,25.597,1111122 
COMPS,ioos:station:USF.COMPS:ANC:1,2013-02-01T16:54:00Z,28.1930,-82.7890,1.0,25.368,1111122 
COMPS,ioos:station:USF.COMPS:ANC:1,2013-02-01T17:00:00Z,28.1930,-82.7890,1.0,25.433,1111122 
COMPS,ioos:station:USF.COMPS:ANC:1,2013-02-01T17:06:00Z,28.1930,-82.7890,1.0,25.368,1111122 
COMPS,ioos:station:USF.COMPS:ANC:1,2013-02-01T17:12:00Z,28.1930,-82.7890,1.0,25.208,1111122 
COMPS,ioos:station:USF.COMPS:ANC:1,2013-02-01T17:18:00Z,28.1930,-82.7890,1.0,25.136,1111122 
COMPS,ioos:station:USF.COMPS:ANC:1,2013-02-01T17:24:00Z,28.1930,-82.7890,1.0,25.215,1111122 
COMPS,ioos:station:USF.COMPS:ANC:1,2013-02-01T17:30:00Z,28.1930,-82.7890,1.0,25.135,1111122 
COMPS,ioos:station:USF.COMPS:ANC:1,2013-02-01T17:36:00Z,28.1930,-82.7890,1.0,25.116,1111122 
COMPS,ioos:station:USF.COMPS:ANC:1,2013-02-01T17:42:00Z,28.1930,-82.7890,1.0,25.116,1111122 
COMPS,ioos:station:USF.COMPS:ANC:1,2013-02-01T17:48:00Z,28.1930,-82.7890,1.0,25.093,1111122 
COMPS,ioos:station:USF.COMPS:ANC:1,2013-02-01T17:54:00Z,28.1930,-82.7890,1.0,24.878,1111122 
COMPS,ioos:station:USF.COMPS:ANC:1,2013-02-01T18:00:00Z,28.1930,-82.7890,1.0,24.489,1111122 
COMPS,ioos:station:USF.COMPS:ANC:1,2013-02-01T18:06:00Z,28.1930,-82.7890,1.0,24.429,1111122 
COMPS,ioos:station:USF.COMPS:ANC:1,2013-02-01T18:12:00Z,28.1930,-82.7890,1.0,24.514,1111122 
COMPS,ioos:station:USF.COMPS:ANC:1,2013-02-01T18:18:00Z,28.1930,-82.7890,1.0,24.603,1111122 
COMPS,ioos:station:USF.COMPS:ANC:1,2013-02-01T18:24:00Z,28.1930,-82.7890,1.0,24.675,1111122 
COMPS,ioos:station:USF.COMPS:ANC:1,2013-02-01T18:30:00Z,28.1930,-82.7890,1.0,24.667,1111122 
COMPS,ioos:station:USF.COMPS:ANC:1,2013-02-01T18:36:00Z,28.1930,-82.7890,1.0,24.638,1111122 
COMPS,ioos:station:USF.COMPS:ANC:1,2013-02-01T18:42:00Z,28.1930,-82.7890,1.0,24.619,1111122 
COMPS,ioos:station:USF.COMPS:ANC:1,2013-02-01T18:48:00Z,28.1930,-82.7890,1.0,24.577,1111122 
COMPS,ioos:station:USF.COMPS:ANC:1,2013-02-01T18:54:00Z,28.1930,-82.7890,1.0,24.592,1111122 
COMPS,ioos:station:USF.COMPS:ANC:1,2013-02-01T19:00:00Z,28.1930,-82.7890,1.0,24.599,1111122 
COMPS,ioos:station:USF.COMPS:ANC:1,2013-02-01T19:06:00Z,28.1930,-82.7890,1.0,24.602,1111122 
COMPS,ioos:station:USF.COMPS:ANC:1,2013-02-01T19:12:00Z,28.1930,-82.7890,1.0,24.63,1111122 
COMPS,ioos:station:USF.COMPS:ANC:1,2013-02-01T19:18:00Z,28.1930,-82.7890,1.0,24.609,1111122 
COMPS,ioos:station:USF.COMPS:ANC:1,2013-02-01T19:24:00Z,28.1930,-82.7890,1.0,24.66,1111122 
COMPS,ioos:station:USF.COMPS:ANC:1,2013-02-01T19:30:00Z,28.1930,-82.7890,1.0,24.592,1111122 
COMPS,ioos:station:USF.COMPS:ANC:1,2013-02-01T19:36:00Z,28.1930,-82.7890,1.0,24.608,1111122 
COMPS,ioos:station:USF.COMPS:ANC:1,2013-02-01T19:42:00Z,28.1930,-82.7890,1.0,24.626,1111122 
COMPS,ioos:station:USF.COMPS:ANC:1,2013-02-01T19:48:00Z,28.1930,-82.7890,1.0,24.699,1111122 
COMPS,ioos:station:USF.COMPS:ANC:1,2013-02-01T19:54:00Z,28.1930,-82.7890,1.0,24.77,1111122 
COMPS,ioos:station:USF.COMPS:ANC:1,2013-02-01T20:00:00Z,28.1930,-82.7890,1.0,24.819,1111122 
COMPS,ioos:station:USF.COMPS:ANC:1,2013-02-01T20:06:00Z,28.1930,-82.7890,1.0,24.972,1111122 
COMPS,ioos:station:USF.COMPS:ANC:1,2013-02-01T20:12:00Z,28.1930,-82.7890,1.0,25.055,1111122 
COMPS,ioos:station:USF.COMPS:ANC:1,2013-02-01T20:18:00Z,28.1930,-82.7890,1.0,25.19,1111122 
COMPS,ioos:station:USF.COMPS:ANC:1,2013-02-01T20:24:00Z,28.1930,-82.7890,1.0,25.365,1111122 
COMPS,ioos:station:USF.COMPS:ANC:1,2013-02-01T20:30:00Z,28.1930,-82.7890,1.0,25.459,1111122 
COMPS,ioos:station:USF.COMPS:ANC:1,2013-02-01T20:36:00Z,28.1930,-82.7890,1.0,25.552,1111122 
COMPS,ioos:station:USF.COMPS:ANC:1,2013-02-01T20:42:00Z,28.1930,-82.7890,1.0,25.606,1111122 
COMPS,ioos:station:USF.COMPS:ANC:1,2013-02-01T20:48:00Z,28.1930,-82.7890,1.0,25.608,1111122 
COMPS,ioos:station:USF.COMPS:ANC:1,2013-02-01T20:54:00Z,28.1930,-82.7890,0.0,25.659,1111122 
COMPS,ioos:station:USF.COMPS:ANC:1,2013-02-01T21:00:00Z,28.1930,-82.7890,1.0,25.671,1111122 
COMPS,ioos:station:USF.COMPS:ANC:1,2013-02-01T21:06:00Z,28.1930,-82.7890,1.0,25.706,1111122 
COMPS,ioos:station:USF.COMPS:ANC:1,2013-02-01T21:12:00Z,28.1930,-82.7890,1.0,25.775,1111122 
COMPS,ioos:station:USF.COMPS:ANC:1,2013-02-01T21:18:00Z,28.1930,-82.7890,1.0,25.78,1111122 
COMPS,ioos:station:USF.COMPS:ANC:1,2013-02-01T21:24:00Z,28.1930,-82.7890,1.0,25.811,1111122 
COMPS,ioos:station:USF.COMPS:ANC:1,2013-02-01T21:30:00Z,28.1930,-82.7890,1.0,25.794,1111122 
COMPS,ioos:station:USF.COMPS:ANC:1,2013-02-01T21:36:00Z,28.1930,-82.7890,1.0,25.801,1111122 
COMPS,ioos:station:USF.COMPS:ANC:1,2013-02-01T21:42:00Z,28.1930,-82.7890,1.0,25.782,1111122 
COMPS,ioos:station:USF.COMPS:ANC:1,2013-02-01T21:48:00Z,28.1930,-82.7890,1.0,25.781,1111122 
COMPS,ioos:station:USF.COMPS:ANC:1,2013-02-01T21:54:00Z,28.1930,-82.7890,1.0,25.756,1111122 
COMPS,ioos:station:USF.COMPS:ANC:1,2013-02-01T22:00:00Z,28.1930,-82.7890,1.0,25.722,1111122 
COMPS,ioos:station:USF.COMPS:ANC:1,2013-02-01T22:06:00Z,28.1930,-82.7890,1.0,25.728,1111122 
COMPS,ioos:station:USF.COMPS:ANC:1,2013-02-01T22:12:00Z,28.1930,-82.7890,1.0,25.711,1111122 
COMPS,ioos:station:USF.COMPS:ANC:1,2013-02-01T22:18:00Z,28.1930,-82.7890,1.0,25.696,1111122 
COMPS,ioos:station:USF.COMPS:ANC:1,2013-02-01T22:24:00Z,28.1930,-82.7890,1.0,25.704,1111122 
COMPS,ioos:station:USF.COMPS:ANC:1,2013-02-01T22:30:00Z,28.1930,-82.7890,1.0,25.712,1111122 
COMPS,ioos:station:USF.COMPS:ANC:1,2013-02-01T22:36:00Z,28.1930,-82.7890,1.0,25.711,1111122 
COMPS,ioos:station:USF.COMPS:ANC:1,2013-02-01T22:42:00Z,28.1930,-82.7890,1.0,25.721,1111122 
COMPS,ioos:station:USF.COMPS:ANC:1,2013-02-01T22:48:00Z,28.1930,-82.7890,1.0,25.727,1111122 
COMPS,ioos:station:USF.COMPS:ANC:1,2013-02-01T22:54:00Z,28.1930,-82.7890,1.0,25.731,1111122 
COMPS,ioos:station:USF.COMPS:ANC:1,2013-02-01T23:00:00Z,28.1930,-82.7890,1.0,25.741,1111122 
COMPS,ioos:station:USF.COMPS:ANC:1,2013-02-01T23:06:00Z,28.1930,-82.7890,1.0,25.724,1111122 
COMPS,ioos:station:USF.COMPS:ANC:1,2013-02-01T23:12:00Z,28.1930,-82.7890,1.0,25.732,1111122 
COMPS,ioos:station:USF.COMPS:ANC:1,2013-02-01T23:18:00Z,28.1930,-82.7890,1.0,25.746,1111122 
COMPS,ioos:station:USF.COMPS:ANC:1,2013-02-01T23:24:00Z,28.1930,-82.7890,1.0,25.758,1111122 
COMPS,ioos:station:USF.COMPS:ANC:1,2013-02-01T23:30:00Z,28.1930,-82.7890,1.0,25.762,1111122 
COMPS,ioos:station:USF.COMPS:ANC:1,2013-02-01T23:36:00Z,28.1930,-82.7890,1.0,25.756,1111122 
COMPS,ioos:station:USF.COMPS:ANC:1,2013-02-01T23:42:00Z,28.1930,-82.7890,1.0,25.721,1111122 
COMPS,ioos:station:USF.COMPS:ANC:1,2013-02-01T23:48:00Z,28.1930,-82.7890,1.0,25.701,1111122 
COMPS,ioos:station:USF.COMPS:ANC:1,2013-02-01T23:54:00Z,28.1930,-82.7890,1.0,25.703,1111122 
COMPS,ioos:station:USF.COMPS:ANC:1,2013-02-02T00:00:00Z,28.1930,-82.7890,1.0,25.648,1111122 
COMPS,ioos:station:USF.COMPS:ANC:1,2013-02-02T00:06:00Z,28.1930,-82.7890,1.0,25.337,1111122 
COMPS,ioos:station:USF.COMPS:ANC:1,2013-02-02T00:12:00Z,28.1930,-82.7890,1.0,25.067,1111122 
COMPS,ioos:station:USF.COMPS:ANC:1,2013-02-02T00:18:00Z,28.1930,-82.7890,1.0,24.96,1111122 
COMPS,ioos:station:USF.COMPS:ANC:1,2013-02-02T00:24:00Z,28.1930,-82.7890,1.0,25.077,1111122 
COMPS,ioos:station:USF.COMPS:ANC:1,2013-02-02T00:30:00Z,28.1930,-82.7890,1.0,25.288,1111122 
COMPS,ioos:station:USF.COMPS:ANC:1,2013-02-02T00:36:00Z,28.1930,-82.7890,1.0,25.323,1111122 
COMPS,ioos:station:USF.COMPS:ANC:1,2013-02-02T00:42:00Z,28.1930,-82.7890,1.0,25.354,1111122 
COMPS,ioos:station:USF.COMPS:ANC:1,2013-02-02T00:48:00Z,28.1930,-82.7890,1.0,25.356,1111122 
COMPS,ioos:station:USF.COMPS:ANC:1,2013-02-02T00:54:00Z,28.1930,-82.7890,1.0,25.352,1111122 
COMPS,ioos:station:USF.COMPS:ANC:1,2013-02-02T01:00:00Z,28.1930,-82.7890,1.0,25.334,1111122 
COMPS,ioos:station:USF.COMPS:ANC:1,2013-02-02T01:06:00Z,28.1930,-82.7890,1.0,25.352,1111122 
COMPS,ioos:station:USF.COMPS:ANC:1,2013-02-02T01:12:00Z,28.1930,-82.7890,1.0,25.307,1111122 
COMPS,ioos:station:USF.COMPS:ANC:1,2013-02-02T01:18:00Z,28.1930,-82.7890,1.0,25.255,1111122 
COMPS,ioos:station:USF.COMPS:ANC:1,2013-02-02T01:24:00Z,28.1930,-82.7890,1.0,25.244,1111122 
COMPS,ioos:station:USF.COMPS:ANC:1,2013-02-02T01:30:00Z,28.1930,-82.7890,1.0,25.238,1111122 
COMPS,ioos:station:USF.COMPS:ANC:1,2013-02-02T01:36:00Z,28.1930,-82.7890,1.0,25.225,1111122 
COMPS,ioos:station:USF.COMPS:ANC:1,2013-02-02T01:42:00Z,28.1930,-82.7890,1.0,25.252,1111122 
COMPS,ioos:station:USF.COMPS:ANC:1,2013-02-02T01:48:00Z,28.1930,-82.7890,1.0,25.263,1111122 
COMPS,ioos:station:USF.COMPS:ANC:1,2013-02-02T01:54:00Z,28.1930,-82.7890,1.0,25.277,1111122 
COMPS,ioos:station:USF.COMPS:ANC:1,2013-02-02T02:00:00Z,28.1930,-82.7890,1.0,25.274,1111122 
COMPS,ioos:station:USF.COMPS:ANC:1,2013-02-02T02:06:00Z,28.1930,-82.7890,1.0,25.295,1111122 
COMPS,ioos:station:USF.COMPS:ANC:1,2013-02-02T02:12:00Z,28.1930,-82.7890,1.0,25.299,1111122 
COMPS,ioos:station:USF.COMPS:ANC:1,2013-02-02T02:18:00Z,28.1930,-82.7890,1.0,25.347,1111122 
COMPS,ioos:station:USF.COMPS:ANC:1,2013-02-02T02:24:00Z,28.1930,-82.7890,1.0,25.297,1111122 
COMPS,ioos:station:USF.COMPS:ANC:1,2013-02-02T02:30:00Z,28.1930,-82.7890,1.0,25.284,1111122 
COMPS,ioos:station:USF.COMPS:ANC:1,2013-02-02T02:36:00Z,28.1930,-82.7890,1.0,25.292,1111122 
COMPS,ioos:station:USF.COMPS:ANC:1,2013-02-02T02:42:00Z,28.1930,-82.7890,1.0,25.324,1111122 
COMPS,ioos:station:USF.COMPS:ANC:1,2013-02-02T02:48:00Z,28.1930,-82.7890,1.0,25.326,1111122 
COMPS,ioos:station:USF.COMPS:ANC:1,2013-02-02T02:54:00Z,28.1930,-82.7890,1.0,25.292,1111122 
COMPS,ioos:station:USF.COMPS:ANC:1,2013-02-02T03:00:00Z,28.1930,-82.7890,1.0,25.275,1111122 
COMPS,ioos:station:USF.COMPS:ANC:1,2013-02-02T03:06:00Z,28.1930,-82.7890,1.0,25.286,1111122 
COMPS,ioos:station:USF.COMPS:ANC:1,2013-02-02T03:12:00Z,28.1930,-82.7890,1.0,25.278,1111122 
COMPS,ioos:station:USF.COMPS:ANC:1,2013-02-02T03:18:00Z,28.1930,-82.7890,1.0,25.263,1111122 
COMPS,ioos:station:USF.COMPS:ANC:1,2013-02-02T03:24:00Z,28.1930,-82.7890,1.0,25.242,1111122 